Regional Weather Roundup
Issued by NWS

Home | Current Version | Previous Version | Graphics & Text | Print | Product List | Glossary Off
Versions: 1 2 3 4 5 6 7 8 9 10 11 12 13 14 15 16 17 18 19 20 21 22 23 24 25 26 27 28 29 30 31 32 33 34 35 36 37 38 39 40 41 42 43 44 45 46 47 48 49 50

072
ASUS43 KMKX 031111
RWRWI

WISCONSIN REGIONAL WEATHER ROUNDUP
NATIONAL WEATHER SERVICE MILWAUKEE/SULLIVAN WI
600 AM CDT TUE MAY 03 2016

NOTE: "FAIR" INDICATES FEW OR NO CLOUDS BELOW 12,000 FEET WITH NO
SIGNIFICANT WEATHER AND/OR OBSTRUCTIONS TO VISIBILITY.

WIZ001-002-006>008-014>016-023>028-031200-
NORTHWEST WISCONSIN

CITY           SKY/WX    TMP DP  RH WIND       PRES   REMARKS
SUPERIOR ARPT  CLOUDY    44  34  68 SW8       29.83F
ASHLAND        PTCLDY    50  33  52 SW10      29.83F
HAYWARD        CLOUDY    35  31  85 S3        29.88F
SIREN          CLOUDY    48  35  59 W9        29.89F
CUMBERLAND     CLOUDY    43  34  70 SW7       29.90F
RICE LAKE      CLOUDY    40  35  83 CALM      29.92F
CHETEK         CLOUDY    39  33  80 E6        29.91F WCI  34
LADYSMITH      CLEAR     37  35  92 CALM      29.92F
EAU CLAIRE     CLEAR     41  38  89 SW3       29.92F
MENOMONIE      CLEAR     39  36  87 CALM      29.93S
NEW RICHMOND   CLEAR     42  36  80 S3        29.93F
OSCEOLA        CLEAR     39  39 100 CALM      29.94F
$$

WIZ003>005-009-010-017-018-031200-
NORTH CENTRAL WISCONSIN

CITY           SKY/WX    TMP DP  RH WIND       PRES   REMARKS
MANITOWISH WTR CLOUDY    32  32 100 CALM      29.86F
ARBOR VITAE    CLEAR     39  33  78 CALM      29.86F
WOODRUFF       CLEAR     39  33  78 CALM      29.86F
RHINELANDER    CLEAR     35  30  82 W7        29.88F WCI  29
EAGLE RIVER    PTCLDY    32  32  98 W6        29.85F WCI  27
LAND O LAKES   PTCLDY    31  31  99 CALM      29.86S
PHILLIPS       CLOUDY    34  33  99 CALM      29.88F
TOMAHAWK       CLEAR     31  29  93 CALM      29.89F
MEDFORD        CLEAR     43  34  69 SW5       29.90F
MERRILL        CLEAR     32  30  93 CALM      29.91S
$$

WIZ029-030-035-036-043>047-031200-
CENTRAL WISCONSIN

CITY           SKY/WX    TMP DP  RH WIND       PRES   REMARKS
WAUSAU         CLEAR     47  35  63 NW6       29.89F
MOSINEE        CLEAR     43  34  70 W6        29.92S
MARSHFIELD     CLEAR     43  34  70 W7        29.91F
STEVENS POINT    N/A     32  31  96 CALM      29.93S
WAUPACA        CLEAR     41  33  74 CALM      29.92S
WAUTOMA        CLEAR     34  31  88 CALM      29.93F
WISC RAPIDS    CLEAR     35  32  88 CALM      29.93F
CAMP DOUGLAS     N/A     35  35 100 CALM      29.93F
$$

WIZ011>013-019>022-031-037>040-048>050-031200-
NORTHEAST WISCONSIN

CITY           SKY/WX    TMP DP  RH WIND       PRES   REMARKS
ANTIGO         CLEAR     35  33  93 CALM      29.90S
SHAWANO        CLEAR     43  35  73 SW3       29.89F
OCONTO         CLEAR     40  37  90 CALM      29.87F
STURGEON BAY   CLEAR     45  34  65 SW7       29.90F
GREEN BAY      CLEAR     44  37  76 SW3       29.90F
MANITOWOC      CLEAR     46  33  60 W8        29.91F
APPLETON       PTCLDY    43  34  70 W8        29.89F
CLINTONVILLE   CLEAR     37  32  81 S3        29.90S
OSHKOSH        CLEAR     45  34  65 W6        29.91F
$$

WIZ032>034-041-042-053>061-031200-
SOUTHWEST WISCONSIN

CITY           SKY/WX    TMP DP  RH WIND       PRES   REMARKS
LA CROSSE      CLEAR     44  39  82 S6        29.96F
SPARTA         CLEAR     31  30  97 CALM      29.96F
VIROQUA        CLEAR     44  37  78 SW6       29.97S
BOSCOBEL       CLEAR     38  36  92 SW5       29.99S WCI  34
PRAIRIE DU CHI CLEAR     42  37  82 CALM      29.99S
PLATTEVILLE    CLEAR     42  39  90 W3        29.98S
$$

WIZ056-057-062-063-064-067-068-031200-
SOUTH CENTRAL WISCONSIN

CITY           SKY/WX    TMP DP  RH WIND       PRES   REMARKS
REEDSBURG      CLEAR     36  36 100 CALM      29.95F
BARABOO/DELLS  CLEAR     39  35  84 CALM      29.95S
LONE ROCK      PTCLDY    37  35  92 W5        29.98S WCI  33
MINERAL POINT  PTCLDY    45  37  76 W5        29.97S
MADISON        CLEAR     39  35  86 CALM      29.95S
MIDDLETON      CLEAR     44  37  77 W3        29.96F
WATERTOWN      CLEAR     33  32  96 CALM      29.94F
MONROE         CLEAR     45  37  76 W12       29.96S
JANESVILLE     CLEAR     37  37 100 CALM      29.96S
$$

WIZ051-052-058>065-066-070>072-031200-
SOUTHEAST WISCONSIN

CITY           SKY/WX    TMP DP  RH WIND       PRES   REMARKS
MILWAUKEE      PTCLDY    45  32  60 VRB3      29.95S
WAUKESHA       CLEAR     36  30  80 CALM      29.96S
MILWAUKEE/TIMM CLEAR     37  32  81 CALM      29.96S
RACINE         MOCLDY    45  32  60 W7        29.97S
BURLINGTON     MOCLDY    35  35  99 CALM      29.96S
KENOSHA        CLEAR     39  33  79 W8        29.96S WCI  33
FOND DU LAC    CLEAR     44  35  70 SW7       29.93F
SHEBOYGAN      CLEAR     40  31  70 SW7       29.92F
WEST BEND      CLEAR     43  32  65 SW5       29.94S
JUNEAU         CLEAR     39  33  78 S3        29.95S
$$

LSZ147-162-031200-
LAKE SUPERIOR

STATION/POSITION TIME  TEMP    WIND        PRES    WAVE
                       AIR SEA DIR/SP/G            HT/PER
                 (UTC) (F)     (DEG/KT/KT) (MB)    (FT/S)
W MID LAKE BUOY  1050   39 37  230/  6/  8 1008.5F   0
DEVILS ISLAND    1000   42     230/ 13/ 14 1009.8F
SAXON HARBOR     1000   53     200/  9/ 12 1009.8F
$$

LMZ867-665-643>646-031200-
LAKE MICHIGAN

STATION/POSITION TIME  TEMP    WIND        PRES    WAVE
                       AIR SEA DIR/SP/G            HT/PER
                 (UTC) (F)     (DEG/KT/KT) (MB)    (FT/S)
CHAMBERS ISLAND  1000   47     190/  6/ 11 1011.9F
N MID LAKE BUOY  1050   42 38  180/ 10/ 12 1011.2F   0
NORTHPORT PIER   1000   48     210/  4/  9 1011.5F
ALGOMA LAKESHORE 1000             CALM       N/A
KEWAUNEE LAKESHO 1000   47     270/  6/  9 1011.9F
SHEBOYGAN LAKESH 1100   47     220/  7/  8 1013.8F
PORT WASHINGTON  1040   48     260/  6/  8 1014.6S
S MID LAKE BUOY  1050   42 41  230/  4/  4 1014.5F   0
KENOSHA   LAKESH 1100   47     260/  8/ 10 1014.6S
$$

TC  - TEMPERATURE IN CELSIUS
VSB - VISIBILITY IN STATUTE MILES
WCI - WIND CHILL INDEX
HX  - HEAT INDEX





USA.gov is the U.S. government's official web portal to all federal, state and local government web resources and services.